User: anonymous   Login
Location: Unspecified
(0.0000°N, 0.0000°E)
Time: 21:16:29
(UTC+00:00)
Language:

LEMUR-2 BRIDGEMAN - Orbit

View from above orbital plane
View from above orbital plane
View from above satellite
View from above satellite

Ground track
Ground track

The orbit data is extracted from the following two-line orbital elements,

1 41595U 16019B   17141.45649332 +.00204980 +27380-4 +53506-3 0  9990
2 41595 051.6281 129.7258 0004035 045.9886 314.1454 15.94525742052491
Epoch (UTC): 21 May 2017 10:57:21
Eccentricity: 0.0004035
inclination: 51.6281°
perigee height: 287 km
apogee height: 292 km
right ascension of ascending node: 129.7258°
argument of perigee: 45.9886°
revolutions per day: 15.94525742
mean anomaly at epoch: 314.1454°
orbit number at epoch: 5249

The dashed part of the orbit path shows where the satellite is in the earth's shadow,  

DLR